Regional Weather Roundup
Issued by NWS

Home | Current Version | Previous Version | Graphics & Text | Print | Product List | Glossary On
Versions: 1 2 3 4 5 6 7 8 9 10 11 12 13 14 15 16 17 18 19 20 21 22 23 24 25 26 27 28 29 30 31 32 33 34 35 36 37 38 39 40 41 42 43 44 45 46 47 48 49 50
000
ASUS43 KTOP 210059
RWRKS

WEATHER ROUNDUP FOR KANSAS
NATIONAL WEATHER SERVICE GOODLAND KS
800 PM CDT MON APR 20 2015

NOTE:  "FAIR" INDICATES FEW OR NO CLOUDS BELOW 12,000 FEET WITH NO
SIGNIFICANT WEATHER AND/OR OBSTRUCTIONS TO VISIBILITY.

KSZ001>006-013>018-027>032-041>047-210200-
NORTHWEST KANSAS

CITY           SKY/WX    TMP DP  RH WIND       PRES   REMARKS
GOODLAND       CLEAR     54  33  45 NW6       29.88S
HAYS           PTCLDY    57  25  28 NW6       29.87F
HILL CITY      PTCLDY    55  32  41 N8        29.87S
RUSSELL        PTCLDY    55  29  36 NW7       29.86F
$$

KSZ061>065-074>080-084>089-210200-
SOUTHWEST KANSAS

CITY           SKY/WX    TMP DP  RH WIND       PRES   REMARKS
DODGE CITY     PTCLDY    57  30  35 SW3       29.90F
ELKHART          N/A     58  37  45 SE5         N/A
GARDEN CITY    CLEAR     56  29  35 W6        29.89S
GREAT BEND     PTCLDY    57  36  44 CALM      29.88S
LIBERAL        PTCLDY    59  28  31 SE10      29.91R
$$

KSZ066>073-081>083-090>101-210200-
SOUTHEAST KANSAS

CITY           SKY/WX    TMP DP  RH WIND       PRES   REMARKS
CHANUTE        CLOUDY    55  37  50 W5        29.90S
COFFEYVILLE    PTCLDY    57  37  47 CALM      29.91S
HUTCHINSON     MOCLDY    58  34  40 W6        29.89S
MEDICINE LODGE   N/A     60  33  36 W7        29.91S
NEWTON         CLOUDY    55  34  44 N5        29.91S
PARSONS        PTCLDY    55  42  61 CALM      29.92S
WICHITA INTL   PTCLDY    57  33  40 W6        29.90S
WICHITA JABRA  MOCLDY    58  31  35 W7        29.89S
WINFIELD       PTCLDY    56  40  55 W5        29.92S
$$

KSZ007>012-019>026-033>040-048>060-102>105-210200-
NORTHEAST KANSAS

CITY           SKY/WX    TMP DP  RH WIND       PRES   REMARKS
CONCORDIA      PTCLDY    55  26  32 NW8       29.84F
EMPORIA        PTCLDY    55  29  36 W6        29.87S
LAWRENCE       MOCLDY    53  28  38 W8        29.85S
MANHATTAN      PTCLDY    56  26  31 CALM      29.85S
OLATHE IND     CLOUDY    54  27  35 W7        29.86S
OLATHE EXE     PTCLDY    54  25  32 W5        29.85R
SALINA         PTCLDY    55  34  45 NW6       29.87S
TOPEKA BILLARD MOCLDY    56  26  31 W6        29.85S
TOPEKA FORBES  PTCLDY    54  29  38 W8        29.85S
$$



USA.gov is the U.S. government's official web portal to all federal, state and local government web resources and services.